GW5170 Weather Reports


time (UTC)temp
C
wind
direction
speed
KPH
gust
KPH
rain 1hr
cm
rain 24hr
cm
rain mn
cm
humidity
%
barometer
mb
20260902230655 32 275 4.8 4.8 0.00 0.00 0.00 65 1013.1
20260902230153 33 230 8.0 11.3 0.00 0.00 0.00 64 1013.1
20260902225648 33 337 4.8 4.8 0.00 0.00 0.00 63 1013.0
20260902225143 33 229 6.4 6.4 0.00 0.00 0.00 62 1013.1
20260902224642 34 295 4.8 6.4 0.00 0.00 0.00 59 1012.9
20260902224138 33 266 4.8 4.8 0.00 0.00 0.00 59 1012.8
20260902223634 33 215 4.8 4.8 0.00 0.00 0.00 59 1012.9
20260902223132 33 260 6.4 6.4 0.00 0.00 0.00 58 1012.9
20260902222631 34 327 1.6 1.6 0.00 0.00 0.00 56 1012.9
20260902222130 34 260 4.8 6.4 0.00 0.00 0.00 55 1013.0
20260902221624 35 335 3.2 4.8 0.00 0.00 0.00 54 1013.1
20260902221120 36 315 4.8 4.8 0.00 0.00 0.00 51 1013.1
20260902220616 35 304 1.6 3.2 0.00 0.00 0.00 51 1013.1
20260902220110 35 256 3.2 4.8 0.00 0.00 0.00 53 1013.2
20260902215606 35 260 6.4 6.4 0.00 0.00 0.00 52 1013.2
20260902215101 35 325 3.2 3.2 0.00 0.00 0.00 53 1013.2
20260902214555 35 340 6.4 6.4 0.00 0.00 0.00 52 1013.5
20260902214054 34 338 3.2 4.8 0.00 0.00 0.00 53 1013.4
20260902213550 34 295 3.2 4.8 0.00 0.00 0.00 54 1013.4
20260902213049 35 309 6.4 6.4 0.00 0.00 0.00 53 1013.5
20260902212545 34 285 8.0 9.7 0.00 0.00 0.00 54 1013.5
20260902212041 34 323 6.4 6.4 0.00 0.00 0.00 55 1013.5
20260902211537 35 298 4.8 4.8 0.00 0.00 0.00 54 1013.9
20260902211032 35 336 9.7 11.3 0.00 0.00 0.00 55 1013.6
20260902210531 35 309 3.2 3.2 0.00 0.00 0.00 55 1013.7
20260902210026 35 333 3.2 4.8 0.00 0.00 0.00 54 1013.7
20260902205520 34 340 3.2 4.8 0.00 0.00 0.00 54 1014.0
20260902205016 35 318 6.4 6.4 0.00 0.00 0.00 53 1013.7
20260902204515 35 257 4.8 4.8 0.00 0.00 0.00 52 1013.7
20260902204011 35 274 3.2 4.8 0.00 0.00 0.00 52 1013.6
20260902203506 35 45 3.2 4.8 0.00 0.00 0.00 51 1013.5
20260902203005 35 254 9.7 11.3 0.00 0.00 0.00 52 1013.6
20260902202501 35 326 11.3 11.3 0.00 0.00 0.00 50 1013.7
20260902201957 35 341 9.7 12.9 0.00 0.00 0.00 50 1013.7
20260902201452 35 272 6.4 9.7 0.00 0.00 0.00 52 1013.7
20260902200951 35 345 4.8 6.4 0.00 0.00 0.00 51 1014.0
20260902200447 35 346 3.2 3.2 0.00 0.00 0.00 50 1014.0
20260902195942 35 335 6.4 11.3 0.00 0.00 0.00 50 1013.9
20260902195437 35 309 9.7 12.9 0.00 0.00 0.00 51 1014.1
20260902194932 35 259 9.7 11.3 0.00 0.00 0.00 50 1014.2
20260902194431 35 253 4.8 6.4 0.00 0.00 0.00 49 1014.2
20260902193926 35 315 6.4 6.4 0.00 0.00 0.00 50 1014.2
20260902193423 35 321 3.2 4.8 0.00 0.00 0.00 52 1014.0
20260902192921 34 290 8.0 12.9 0.00 0.00 0.00 52 1013.9
20260902192420 35 255 12.9 14.5 0.00 0.00 0.00 50 1013.9
20260902191919 34 238 8.0 11.3 0.00 0.00 0.00 50 1014.0
20260902191415 35 264 14.5 16.1 0.00 0.00 0.00 50 1014.0
20260902190910 34 265 14.5 20.9 0.00 0.00 0.00 51 1014.0
20260902190405 35 208 14.5 17.7 0.00 0.00 0.00 53 1014.0
20260902185901 35 329 6.4 9.7 0.00 0.00 0.00 53 1014.1
20260902185356 35 275 9.7 11.3 0.00 0.00 0.00 51 1014.1
20260902184851 35 277 8.0 9.7 0.00 0.00 0.00 52 1014.2
20260902184347 35 273 4.8 6.4 0.00 0.00 0.00 55 1014.1
20260902183842 35 253 8.0 9.7 0.00 0.00 0.00 52 1014.1
20260902183338 35 348 6.4 9.7 0.00 0.00 0.00 53 1014.1
20260902182828 33 255 11.3 14.5 0.00 0.00 0.00 54 1014.2
20260902182325 33 252 12.9 17.7 0.00 0.00 0.00 55 1014.2
20260902181821 33 249 4.8 9.7 0.00 0.00 0.00 56 1014.2
20260902181316 33 334 11.3 14.5 0.00 0.00 0.00 56 1014.3
20260902180810 33 247 9.7 12.9 0.00 0.00 0.00 57 1014.5
20260902180306 33 256 4.8 9.7 0.00 0.00 0.00 58 1014.5
20260902175801 33 286 6.4 6.4 0.00 0.00 0.00 58 1014.5
20260902175256 33 261 8.0 11.3 0.00 0.00 0.00 58 1014.7
20260902174757 33 241 8.0 11.3 0.00 0.00 0.00 59 1014.6
20260902174254 33 243 4.8 6.4 0.00 0.00 0.00 59 1014.7
20260902173749 32 276 3.2 4.8 0.00 0.00 0.00 60 1014.7
20260902173248 32 305 8.0 11.3 0.00 0.00 0.00 60 1015.1
20260902172743 32 283 8.0 9.7 0.00 0.00 0.00 60 1015.0
20260902172243 32 344 3.2 3.2 0.00 0.00 0.00 61 1015.1
20260902171738 32 318 3.2 3.2 0.00 0.00 0.00 60 1015.2
20260902171233 31 256 8.0 9.7 0.00 0.00 0.00 62 1015.2
20260902170730 32 275 6.4 9.7 0.00 0.00 0.00 61 1015.3
20260902170225 31 262 9.7 12.9 0.00 0.00 0.00 62 1015.0
20260902165721 32 257 9.7 12.9 0.00 0.00 0.00 63 1014.9
20260902165214 32 326 3.2 4.8 0.00 0.00 0.00 63 1015.2
20260902164709 31 220 6.4 6.4 0.00 0.00 0.00 62 1015.0
20260902164208 32 278 6.4 6.4 0.00 0.00 0.00 63 1015.2
20260902163704 32 227 3.2 6.4 0.00 0.00 0.00 59 1015.1
20260902163203 31 336 4.8 4.8 0.00 0.00 0.00 63 1015.0
20260902162701 31 266 4.8 4.8 0.00 0.00 0.00 63 1015.0
20260902162156 31 251 8.0 11.3 0.00 0.00 0.00 64 1014.9
20260902161651 30 13 3.2 4.8 0.00 0.00 0.00 64 1015.0
20260902161147 30 340 6.4 9.7 0.00 0.00 0.00 67 1014.9
20260902160644 30 237 6.4 9.7 0.00 0.00 0.00 65 1014.9
20260902160138 30 282 8.0 9.7 0.00 0.00 0.00 65 1015.0
20260902155637 30 56 6.4 9.7 0.00 0.00 0.00 67 1014.9
20260902155135 30 200 6.4 11.3 0.00 0.00 0.00 66 1015.0
20260902154630 30 274 6.4 11.3 0.00 0.00 0.00 67 1014.8
20260902154126 30 177 8.0 9.7 0.00 0.00 0.00 67 1014.7
20260902153625 30 246 3.2 4.8 0.00 0.00 0.00 65 1014.9
20260902153120 30 239 6.4 6.4 0.00 0.00 0.00 69 1014.9
20260902152616 30 267 8.0 11.3 0.00 0.00 0.00 69 1014.9
20260902152111 29 299 3.2 4.8 0.00 0.00 0.00 69 1014.9
20260902151607 30 225 6.4 9.7 0.00 0.00 0.00 67 1014.9
20260902151107 29 319 6.4 6.4 0.00 0.00 0.00 70 1014.9
20260902150602 28 298 6.4 6.4 0.00 0.00 0.00 71 1014.9
20260902150058 28 277 8.0 9.7 0.00 0.00 0.00 72 1014.8
20260902145557 28 307 6.4 9.7 0.00 0.00 0.00 71 1014.9
20260902145057 28 333 4.8 6.4 0.00 0.00 0.00 71 1014.8
20260902144554 28 208 3.2 4.8 0.00 0.00 0.00 70 1014.9
20260902144054 28 253 3.2 6.4 0.00 0.00 0.00 70 1015.0
20260902143549 28 224 6.4 6.4 0.00 0.00 0.00 73 1014.9
20260902143045 27 254 6.4 9.7 0.00 0.00 0.00 72 1014.7
20260902142543 27 268 6.4 9.7 0.00 0.00 0.00 72 1014.8
20260902142036 28 213 4.8 6.4 0.00 0.00 0.00 71 1014.7
20260902141536 27 229 6.4 6.4 0.00 0.00 0.00 72 1014.8
20260902141032 27 224 9.7 11.3 0.00 0.00 0.00 72 1014.6
20260902140532 27 263 4.8 6.4 0.00 0.00 0.00 74 1014.7
20260902140027 26 210 9.7 12.9 0.00 0.00 0.00 76 1014.8
20260902135526 26 233 6.4 6.4 0.00 0.00 0.00 76 1014.8
20260902135021 27 239 4.8 4.8 0.00 0.00 0.00 75 1014.8
20260902134517 26 225 4.8 4.8 0.00 0.00 0.00 77 1015.1
20260902134017 26 35 3.2 3.2 0.00 0.00 0.00 77 1015.2
20260902133512 26 199 4.8 4.8 0.00 0.00 0.00 77 1015.1
20260902133012 26 321 1.6 1.6 0.00 0.00 0.00 78 1015.2
20260902132507 26 331 3.2 3.2 0.00 0.00 0.00 78 1015.3
20260902132002 26 211 6.4 6.4 0.00 0.00 0.00 77 1015.4
20260902131459 26 227 3.2 3.2 0.00 0.00 0.00 76 1015.3
20260902130958 26 339 4.8 4.8 0.00 0.00 0.00 76 1015.2
20260902130454 25 265 1.6 3.2 0.00 0.00 0.00 76 1015.5
20260902125949 25 319 1.6 1.6 0.00 0.00 0.00 76 1015.5
20260902125445 25 353 0.0 1.6 0.00 0.00 0.00 77 1015.4
20260902124941 25 270 3.2 3.2 0.00 0.00 0.00 78 1015.6
20260902124437 25 324 0.0 1.6 0.00 0.00 0.00 78 1015.7
20260902123932 25 320 3.2 4.8 0.00 0.00 0.00 77 1015.5
20260902123428 25 353 0.0 0.0 0.00 0.00 0.00 78 1015.7
20260902122926 25 5 3.2 3.2 0.00 0.00 0.00 80 1015.4
20260902122422 24 240 3.2 4.8 0.00 0.00 0.00 80 1015.5
20260902121918 24 1 1.6 1.6 0.00 0.00 0.00 81 1015.6
20260902121412 24 309 3.2 3.2 0.00 0.00 0.00 81 1015.5
20260902120907 24 340 0.0 1.6 0.00 0.00 0.00 82 1016.2
20260902120404 24 355 4.8 4.8 0.00 0.00 0.00 81 1016.2
20260902115903 24 3 4.8 4.8 0.00 0.00 0.00 80 1015.9
20260902115359 23 262 6.4 6.4 0.00 0.00 0.00 81 1015.5
20260902114856 23 340 3.2 4.8 0.00 0.00 0.00 83 1015.7
20260902114351 23 325 3.2 4.8 0.00 0.00 0.00 83 1015.6
20260902113845 23 15 1.6 1.6 0.00 0.00 0.00 83 1015.3
20260902113342 23 321 1.6 1.6 0.00 0.00 0.00 83 1015.3
20260902112840 23 336 6.4 11.3 0.00 0.00 0.00 84 1015.3
20260902112337 24 12 6.4 6.4 0.00 0.00 0.00 81 1015.0
20260902111833 24 291 4.8 6.4 0.00 0.00 0.00 80 1014.5
20260902111329 24 267 3.2 3.2 0.00 0.00 0.00 80 1014.6
20260902110824 24 211 4.8 4.8 0.00 0.00 0.00 80 1014.3
20260902110320 24 219 4.8 4.8 0.00 0.00 0.00 80 1014.4
20260902105820 24 278 3.2 3.2 0.00 0.00 0.00 80 1014.6
20260902105315 24 304 3.2 4.8 0.00 0.00 0.00 80 1014.5
20260902104810 24 286 1.6 3.2 0.00 0.00 0.00 80 1014.6
20260902104306 24 280 3.2 4.8 0.00 0.00 0.00 81 1014.4
20260902103800 24 303 3.2 3.2 0.00 0.00 0.00 81 1014.5
20260902103255 24 322 1.6 1.6 0.00 0.00 0.00 81 1014.5
20260902102750 24 282 3.2 3.2 0.00 0.00 0.00 81 1014.6
20260902102248 23 313 3.2 3.2 0.00 0.00 0.00 81 1014.8
20260902101743 23 311 3.2 3.2 0.00 0.00 0.00 81 1014.5
20260902101238 23 319 3.2 4.8 0.00 0.00 0.00 82 1014.5
20260902100737 23 235 4.8 4.8 0.00 0.00 0.00 82 1014.5
20260902100231 23 229 3.2 4.8 0.00 0.00 0.00 82 1014.5
20260902095726 23 298 3.2 3.2 0.00 0.00 0.00 82 1014.4
20260902095220 24 288 3.2 3.2 0.00 0.00 0.00 82 1014.5
20260902094715 24 227 4.8 4.8 0.00 0.00 0.00 82 1014.6
20260902094212 24 224 4.8 4.8 0.00 0.00 0.00 82 1014.6
20260902093710 24 281 3.2 3.2 0.00 0.00 0.00 81 1014.9
20260902093205 24 289 3.2 3.2 0.00 0.00 0.00 81 1014.7
20260902092659 24 211 6.4 9.7 0.00 0.00 0.00 81 1015.0
20260902092155 24 297 1.6 1.6 0.00 0.00 0.00 81 1015.1
20260902091649 24 328 3.2 3.2 0.00 0.00 0.00 81 1015.1
20260902091146 24 293 1.6 3.2 0.00 0.00 0.00 80 1015.0
20260902090641 25 332 1.6 1.6 0.00 0.00 0.00 80 1015.0
20260902090140 24 236 3.2 4.8 0.00 0.00 0.00 81 1015.0
20260902085636 24 232 3.2 3.2 0.00 0.00 0.00 81 1015.1
20260902085130 24 299 3.2 3.2 0.00 0.00 0.00 81 1014.9
20260902084627 24 279 3.2 3.2 0.00 0.00 0.00 81 1014.9
20260902084122 24 295 1.6 3.2 0.00 0.00 0.00 81 1014.8
20260902083617 24 294 3.2 3.2 0.00 0.00 0.00 82 1014.7
20260902083116 24 342 0.0 0.0 0.00 0.00 0.00 82 1014.7
20260902082612 24 282 3.2 4.8 0.00 0.00 0.00 82 1014.7
20260902082109 24 305 3.2 3.2 0.00 0.00 0.00 82 1014.7
20260902081605 24 346 1.6 1.6 0.00 0.00 0.00 82 1014.6
20260902081104 25 316 1.6 1.6 0.00 0.00 0.00 82 1014.6
20260902080559 25 290 3.2 3.2 0.00 0.00 0.00 81 1014.5
20260902080056 25 312 3.2 3.2 0.00 0.00 0.00 81 1014.2
20260902075555 25 321 1.6 1.6 0.00 0.00 0.00 81 1014.4
20260902075052 25 295 3.2 3.2 0.00 0.00 0.00 81 1014.4
20260902074547 25 287 1.6 1.6 0.00 0.00 0.00 82 1014.3
20260902074042 25 276 3.2 3.2 0.00 0.00 0.00 82 1014.3
20260902073537 25 294 3.2 3.2 0.00 0.00 0.00 82 1014.4
20260902073034 25 343 1.6 1.6 0.00 0.00 0.00 82 1014.4
20260902072529 25 322 1.6 1.6 0.00 0.00 0.00 82 1014.3
20260902072026 25 333 0.0 1.6 0.00 0.00 0.00 83 1014.2
20260902071525 25 331 0.0 0.0 0.00 0.00 0.00 83 1014.2
20260902071022 25 340 0.0 0.0 0.00 0.00 0.00 83 1014.2
20260902070517 25 326 0.0 1.6 0.00 0.00 0.00 83 1014.3
20260902070017 25 293 1.6 1.6 0.00 0.00 0.00 83 1014.3
20260902065511 25 319 1.6 1.6 0.00 0.00 0.00 84 1014.6
20260902065006 24 330 1.6 1.6 0.00 0.00 0.00 84 1014.4
20260902064502 25 338 3.2 3.2 0.00 0.00 0.00 84 1014.5
20260902063958 25 351 1.6 1.6 0.00 0.00 0.00 84 1014.3
20260902063457 25 327 1.6 1.6 0.00 0.00 0.00 84 1014.4
20260902062953 25 329 0.0 1.6 0.00 0.00 0.00 84 1014.6
20260902062445 25 333 1.6 1.6 0.00 0.00 0.00 83 1014.5
20260902061940 25 316 1.6 3.2 0.00 0.00 0.00 83 1014.7
20260902061435 25 295 3.2 3.2 0.00 0.00 0.00 83 1014.4
20260902060931 25 325 1.6 1.6 0.00 0.00 0.00 83 1014.9
20260902060427 25 325 1.6 1.6 0.00 0.00 0.00 83 1014.7
20260902055923 25 320 1.6 1.6 0.00 0.00 0.00 83 1014.6
20260902055419 25 322 1.6 1.6 0.00 0.00 0.00 83 1014.6
20260902054914 25 357 1.6 1.6 0.00 0.00 0.00 83 1014.6
20260902054409 25 335 1.6 1.6 0.00 0.00 0.00 83 1014.4
20260902053904 25 222 3.2 3.2 0.00 0.00 0.00 83 1014.5
20260902053400 25 305 1.6 1.6 0.00 0.00 0.00 83 1014.6
20260902052900 25 232 4.8 4.8 0.00 0.00 0.00 82 1014.6
20260902052355 25 315 1.6 1.6 0.00 0.00 0.00 82 1014.6
20260902051850 25 309 1.6 1.6 0.00 0.00 0.00 82 1014.7
20260902051349 26 344 1.6 1.6 0.00 0.00 0.00 82 1014.7
20260902050843 26 335 1.6 1.6 0.00 0.00 0.00 82 1014.9
20260902050342 26 291 3.2 3.2 0.00 0.00 0.00 82 1014.8
20260902045838 26 321 1.6 1.6 0.00 0.00 0.00 82 1014.9
20260902045334 26 319 1.6 1.6 0.00 0.00 0.00 82 1014.8
20260902044830 26 330 0.0 1.6 0.00 0.00 0.00 82 1014.7
20260902044325 26 325 0.0 1.6 0.00 0.00 0.00 83 1014.8
20260902043826 26 337 0.0 0.0 0.00 0.00 0.00 82 1014.6
20260902043321 26 339 0.0 1.6 0.00 0.00 0.00 82 1014.6
20260902042820 26 319 1.6 1.6 0.00 0.00 0.00 82 1014.8
20260902042315 26 341 1.6 3.2 0.00 0.00 0.00 82 1014.8
20260902041810 26 342 1.6 3.2 0.00 0.00 0.00 81 1014.7
20260902041310 26 305 1.6 3.2 0.00 0.00 0.00 81 1014.7
20260902040809 26 314 3.2 4.8 0.00 0.00 0.00 81 1014.7
20260902040305 26 303 1.6 1.6 0.00 0.00 0.00 80 1014.6
20260902035803 26 343 3.2 3.2 0.00 0.00 0.00 79 1014.7
20260902035259 27 268 4.8 6.4 0.00 0.00 0.00 79 1014.6
20260902034757 27 241 3.2 4.8 0.00 0.00 0.00 79 1014.7
20260902034253 27 233 6.4 6.4 0.00 0.00 0.00 78 1014.8
20260902033750 27 325 3.2 4.8 0.00 0.00 0.00 78 1014.7
20260902033246 27 275 3.2 3.2 0.00 0.00 0.00 78 1014.5
20260902032744 27 311 1.6 3.2 0.00 0.00 0.00 78 1014.6
20260902032240 27 303 1.6 3.2 0.00 0.00 0.00 77 1014.5
20260902031740 27 263 4.8 4.8 0.00 0.00 0.00 77 1014.6
20260902031235 27 308 3.2 4.8 0.00 0.00 0.00 77 1014.5
20260902030731 27 304 3.2 3.2 0.00 0.00 0.00 77 1014.5
20260902030231 27 281 1.6 1.6 0.00 0.00 0.00 77 1014.5
20260902025730 27 327 3.2 3.2 0.00 0.00 0.00 77 1014.5
20260902025225 27 312 1.6 3.2 0.00 0.00 0.00 77 1014.3
20260902024720 27 316 0.0 1.6 0.00 0.00 0.00 77 1014.6
20260902024216 27 329 1.6 1.6 0.00 0.00 0.00 77 1014.5
20260902023712 27 315 3.2 3.2 0.00 0.00 0.00 77 1014.5
20260902023207 27 120 3.2 3.2 0.00 0.00 0.00 77 1014.4
20260902022701 27 316 3.2 3.2 0.00 0.00 0.00 77 1014.4
20260902022156 27 321 1.6 3.2 0.00 0.00 0.00 77 1014.4
20260902021652 27 341 1.6 3.2 0.00 0.00 0.00 78 1014.4
20260902021151 28 325 1.6 1.6 0.00 0.00 0.00 78 1014.5
20260902020648 28 300 1.6 3.2 0.00 0.00 0.00 77 1014.6
20260902020143 28 308 1.6 3.2 0.00 0.00 0.00 78 1014.4
20260902015639 28 229 3.2 3.2 0.00 0.00 0.00 78 1014.5
20260902015135 28 325 1.6 1.6 0.00 0.00 0.00 78 1014.3
20260902014631 28 288 3.2 3.2 0.00 0.00 0.00 77 1014.3
20260902014126 28 349 1.6 1.6 0.00 0.00 0.00 77 1014.4
20260902013625 28 321 1.6 1.6 0.00 0.00 0.00 77 1014.2
20260902013121 28 338 0.0 1.6 0.00 0.00 0.00 77 1014.3
20260902012616 29 275 3.2 3.2 0.00 0.00 0.00 76 1014.1
20260902012112 29 338 3.2 3.2 0.00 0.00 0.00 76 1014.2
20260902011608 29 281 1.6 1.6 0.00 0.00 0.00 76 1014.2
20260902011106 29 228 4.8 4.8 0.00 0.00 0.00 76 1014.1
20260902010601 30 214 3.2 4.8 0.00 0.00 0.00 75 1014.2
20260902010057 30 302 1.6 1.6 0.00 0.00 0.00 74 1013.9
20260902005554 30 356 1.6 1.6 0.00 0.00 0.00 74 1014.0
20260902005051 30 330 0.0 1.6 0.00 0.00 0.00 73 1014.1
20260902004550 30 299 1.6 3.2 0.00 0.00 0.00 73 1014.0
20260902004045 30 309 4.8 4.8 0.00 0.00 0.00 73 1014.0
20260902003541 30 337 1.6 1.6 0.00 0.00 0.00 72 1013.9
20260902003036 30 337 1.6 1.6 0.00 0.00 0.00 71 1014.1
20260902002531 31 249 4.8 4.8 0.00 0.00 0.00 70 1013.9
20260902002026 31 197 6.4 9.7 0.00 0.00 0.00 69 1013.9
20260902001520 31 243 3.2 4.8 0.00 0.00 0.00 69 1013.9
20260902001016 31 322 1.6 3.2 0.00 0.00 0.00 68 1014.1
20260902000511 31 249 3.2 3.2 0.00 0.00 0.00 67 1014.0
20260902000005 31 227 6.4 6.4 0.00 0.00 0.00 67 1014.1
20260901235500 31 250 3.2 4.8 0.00 0.00 0.00 67 1014.0
20260901234955 32 247 6.4 9.7 0.00 0.00 0.00 65 1013.9
20260901234450 32 283 4.8 6.4 0.00 0.00 0.00 64 1014.1
20260901233944 32 242 6.4 9.7 0.00 0.00 0.00 63 1014.1
20260901233439 32 222 9.7 11.3 0.00 0.00 0.00 63 1014.1
20260901232936 33 208 6.4 6.4 0.00 0.00 0.00 62 1014.0
20260901232436 33 207 6.4 9.7 0.00 0.00 0.00 61 1013.7
20260901231931 33 319 6.4 6.4 0.00 0.00 0.00 61 1014.1
20260901231427 33 228 4.8 6.4 0.00 0.00 0.00 59 1014.1
20260901230924 33 236 6.4 11.3 0.00 0.00 0.00 59 1014.0